Regional Weather Roundup
Issued by NWS

Home | Current Version | Previous Version | Graphics & Text | Print | Product List | Glossary On
Versions: 1 2 3 4 5 6 7 8 9 10 11 12 13 14 15 16 17 18 19 20 21 22 23 24 25 26 27 28 29 30 31 32 33 34 35 36 37 38 39 40 41 42 43 44 45 46 47 48 49 50
000
ASUS43 KLOT 092203
RWRIL

ILLINOIS REGIONAL WEATHER ROUNDUP
NATIONAL WEATHER SERVICE CHICAGO/ROMEOVILLE IL
400 PM CST TUE FEB 09 2016

NOTE: "FAIR" INDICATES FEW OR NO CLOUDS BELOW 12,000 FEET WITH NO
SIGNIFICANT WEATHER AND/OR OBSTRUCTIONS TO VISIBILITY.

* THESE STATIONS ARE NOT UNDER NWS QUALITY CONTROL. THEY ALSO MAY NOT
  REPORT WEATHER SUCH AS PRECIPITATION OR FOG.

ILZ001-002-007-009-015-016-024-092300-
NORTHWEST ILLINOIS

CITY           SKY/WX    TMP DP  RH WIND       PRES   REMARKS
MOLINE         CLOUDY    16   5  62 NW16G29   30.00R WCI   1
STERLING*      CLOUDY    18   5  57 NW12G17   29.93R WCI   5
$$

ILZ003-004-008-010-011-017-018-092300-
NORTH CENTRAL ILLINOIS

CITY           SKY/WX    TMP DP  RH WIND       PRES   REMARKS
ROCKFORD       FLURRIES  16   7  67 NW15G24   29.94R WCI   1
FREEPORT*      CLOUDY    15   5  63 NW17      29.94R WCI  -1
ROCHELLE*      LGT SNOW  16  10  78 NW17      29.92R WCI   0
DE KALB*       CLOUDY    17   9  71 NW13G18   29.89R WCI   3
$$

ILZ005-006-012>014-019>023-092300-
NORTHEAST ILLINOIS

CITY           SKY/WX    TMP DP  RH WIND       PRES   REMARKS
CHICAGO-OHARE  FLURRIES  17   7  64 NW15      29.87R WCI   2
CHICAGO-MIDWAY LGT SNOW  18   7  62 NW13      29.89R WCI   5
AURORA         CLOUDY    18   7  62 NW20      29.90R WCI   2
WAUKEGAN       CLOUDY    16   6  65 NW9       29.86R WCI   4
DUPAGE AIRPORT CLOUDY    16   5  62 NW16      29.88R WCI   1
WHEELING       CLOUDY    17   7  64 NW15      29.89R WCI   2
MORRIS*        CLOUDY    18   8  66 NW14      29.90R WCI   4
NORTHERLY ISL    N/A     18   8  65 W17         N/A  WCI   3
$$

LMZ740>746-092300-
SOUTHERN LAKE MICHIGAN

STATION/POSITION SKY/WX   TEMP    WIND        PRES    VSBY  WAVE
                          AIR SEA DIR/SP/G                  HT/PER
                          (F)     (DEG/KT/KT) (MB)    (MI)  (FT/S)
HARRISON CRIB              18     310/ 15/ 18   N/A
BURNHAM HARBOR             18     280/ 10/ 16   N/A
CALUMET HARBOR             18     310/  6/ 16 1010.5R
BURNS HARBOR               20     320/ 13/ 19 1011.2R
MICHIGAN CITY              20     270/ 23/ 24   N/A
$$

ILZ025>027-034>036-040-047-049-050-058-095>099-092300-
WEST-CENTRAL ILLINOIS

CITY           SKY/WX    TMP DP  RH WIND       PRES   REMARKS
QUINCY         SUNNY     20   7  57 NW24      30.05R WCI   3
MACOMB*        CLOUDY    17  10  74 NW23      30.04R WCI   0
$$

ILZ028>032-037-038-041>044-048-051>054-059>061-092300-
CENTRAL ILLINOIS

CITY           SKY/WX    TMP DP  RH WIND       PRES   REMARKS
BLOOMINGTON    LGT SNOW  18  10  70 NW21      29.94R WCI   2
DECATUR        LGT SNOW  19  10  68 NW16G24   29.97R WCI   4
PEORIA         LGT SNOW  17   9  70 NW14G21   29.98R WCI   3
LACON*         CLOUDY    18   8  67 NW16G23   29.96R WCI   3
LINCOLN*       CLOUDY    20  10  63 W14G22    29.98R WCI   7
SPRINGFIELD    MIX PCPN  19   9  65 NW14G26   30.01R WCI   6
TAYLORVILLE    NOT AVBL
$$

ILZ033-039-045-046-055>057-062-063-092300-
EAST-CENTRAL ILLINOIS

CITY           SKY/WX    TMP DP  RH WIND       PRES   REMARKS
CHAMPAIGN      LGT SNOW  19  11  70 NW16      29.94R WCI   4
MATTOON        LGT SNOW  18  14  84 W20       29.95R VSB 3/4 WCI   2
$$

ILZ079-100>102-092300-
SOUTHWEST ILLINOIS

CITY           SKY/WX    TMP DP  RH WIND       PRES   REMARKS
ALTON          CLOUDY    21  12  68 NW18      30.05R WCI   6
BELLEVILLE     SUNNY     23  13  66 NW17      30.04R WCI   9
CAHOKIA*       CLOUDY    26  12  55 NW17G26   30.06R WCI  13
SPARTA*        CLOUDY    22  13  68 NW7       30.06R WCI  13
$$

ILZ064>066-069>071-074>076-080>082-084>086-088>090-092>094-092300-
SOUTH-CENTRAL ILLINOIS

CITY           SKY/WX    TMP DP  RH WIND       PRES   REMARKS
CARBONDALE     CLOUDY    22  11  62 NW14G21   30.06R WCI   9
MARION         CLOUDY    23  12  63 NW14G20   30.07R WCI  11
MT. VERNON     CLOUDY    19   9  63 W8        30.03R WCI   9
CENTRALIA*     CLOUDY    22  12  65 NW20      30.03R WCI   6
SALEM*         LGT SNOW  20  13  73 NW14G29   30.03R WCI   7
$$

ILZ067-068-072-073-078-083-087-091-092300-
SOUTHEAST ILLINOIS

CITY           SKY/WX    TMP DP  RH WIND       PRES   REMARKS
LAWRENCEVILLE  LGT SNOW  21  15  78 NW20      29.99R VSB 3/4 WCI   6
HARRISBURG*    FLURRIES  21  15  75 W14       30.05R WCI   8
$$

ABBREVIATIONS USED IN REMARKS
   TC - TEMPERATURE IN CELSIUS
  WCI - WIND CHILL INDEX
   HX - HEAT INDEX
  VSB - VISIBILITY
$$




USA.gov is the U.S. government's official web portal to all federal, state and local government web resources and services.